This is the latest recevied weather packets stored in our database for station/object YO8SHU-10. If no packets are shown the sender has not sent any weather packets the latest 10 day(s).
| Time | Temp. | Humidity | Pressure | Rain* | Wind** | Luminosity | Snow |
|---|---|---|---|---|---|---|---|
| 1777128196 | 21.67° C | 43% | 1016.4 hPa | - | - | - | - |
| 1777126396 | 23.89° C | 39% | 1016.7 hPa | - | - | - | - |
| 1777124596 | 23.89° C | 60% | 1016.9 hPa | - | - | - | - |
| 1777122795 | 23.89° C | 49% | 1017.3 hPa | - | - | - | - |
| 1777120995 | 24.44° C | 66% | 1017.7 hPa | - | - | - | - |
| 1777119195 | 22.78° C | 49% | 1018.1 hPa | - | - | - | - |
| 1777117395 | 21.67° C | 52% | 1018.4 hPa | - | - | - | - |
| 1777115595 | 22.78° C | 54% | 1018.6 hPa | - | - | - | - |
| 1777113795 | 21.67° C | 54% | 1018.9 hPa | - | - | - | - |
| 1777111995 | 20.56° C | 54% | 1019 hPa | - | - | - | - |
| 1777110195 | 21.11° C | 50% | 1019.2 hPa | - | - | - | - |
| 1777108395 | 22.78° C | 42% | 1019.2 hPa | - | - | - | - |
| 1777106594 | 21.67° C | 58% | 1019.5 hPa | - | - | - | - |
| 1777104794 | 20.56° C | 55% | 1019.7 hPa | - | - | - | - |
| 1777102994 | 18.89° C | 56% | 1019.9 hPa | - | - | - | - |
| 1777101194 | 17.22° C | 70% | 1019.9 hPa | - | - | - | - |
| 1777099394 | 16.11° C | 82% | 1020 hPa | - | - | - | - |
| 1777097594 | 15° C | 83% | 1020 hPa | - | - | - | - |
| 1777095794 | 13.89° C | 87% | 1020.2 hPa | - | - | - | - |
| 1777093994 | 14.44° C | 80% | 1020 hPa | - | - | - | - |
| 1777092194 | 16.11° C | 66% | 1020.2 hPa | - | - | - | - |
| 1777090394 | 15° C | 65% | 1020 hPa | - | - | - | - |
| 1777088593 | 10° C | 83% | 1020.2 hPa | - | - | - | - |
| 1777086793 | 5.56° C | 100% | 1020.2 hPa | - | - | - | - |
| 1777084993 | 5.56° C | 100% | 1020.2 hPa | - | - | - | - |
* Rain since midnight (hover to see other rain measurements)
** Current wind speed in m/s (hover to see current wind gust speed)